Disclaimer

Please do not use the information listed here in-flight or in-navigation, as they are not provided to us by the airports but are provided by volunteers, so they might be outdated.

Search


Regions


Airport information page

Radio informations:
Aerodrome flight information system (AFIS) - 122.15 MHz

Airport informations:
Latitude: 63° 02' 54.95" N
Longitude: 017° 46' 07.88" E
Elevation: 34 feet - 10 meters
Operating hours: Remarks
Operating agency: Civil government, landing fees and diplomatic clearance may be required
Timezone: UTC+1(+2DT) - Last Sunday in March to last Sunday in October
Fuel: Jet A1, without icing nhibitor.

91/96 octane gasoline, leaded, No MIL Spec.

100/130 MIL Spec, low lead, aviation gasoline (BLUE)

Runway information:
17/35 - 6565 x 148 feet< - >2001 x 45 meters

Recent METARs:
ESNK 221920Z AUTO 32004KT 290V350 9999 FEW003/// OVC006/// M12/M14 Q1008
ESNK 221950Z AUTO 34004KT 9999 -SN OVC006/// M12/M13 Q1008 RESN RESHUP
ESNK 222020Z AUTO 33003KT 9999 OVC007/// M12/M14 Q1008

Airport on the map: